Flag for Canada Weather past 2 weeks in Glace Bay, Nova Scotia, Canada

Now
N/A

Low clouds.


Feels Like: N/A
Forecast: 31 / 37 °F
Wind: 5 mph from East

Location: Sydney


UV Index: 3 (Moderate)

Visibility: 8 mi


Pressure: N/A

Humidity: N/A

Dew point: N/A

Location of Glace BayLocation

Historic Weather in Glace Bay

°F

Glace Bay temperature yesterday

Maximum temperature yesterday: 37 °F (at 2:00 PM)
Minimum temperature yesterday: 27 °F (at 12:00 AM)
Average temperature yesterday: 31 °F

Past Weeks' High & Low Weather Summary

 TemperatureHumidityPressure
High63 °F (Apr 15, 3:00 PM)100% (Apr 6, 1:00 AM)30.85 "Hg (Apr 6, 1:00 AM)
Low23 °F (Apr 5, 1:00 AM)36% (Apr 7, 3:00 PM)29.31 "Hg (Apr 9, 7:00 AM)
Average37 °F76%30.08 "Hg
* Reported Apr 4 2:00 AM — Apr 19 2:00 AM, Glace Bay, Weather by CustomWeather, © 2014

Note: Actual official high and low records may vary slightly from our data, if they occured in-between our weather recording intervals... More about our weather records

Advertising

Historic Weather Conditions — Data for Previous 24 hours

 ConditionsComfort  
Time TempWeatherWind HumidityBarometerVisibility
2:00 AM
Apr 19
32 °FOvercast.7 mph80%30.27 "Hg8 mi
1:00 AM32 °FOvercast.6 mph75%30.32 "Hg10 mi
12:00 AM32 °FOvercast.9 mph75%30.34 "Hg10 mi
11:00 PM
Apr 18
32 °FOvercast.7 mph75%30.40 "Hg10 mi
10:00 PM32 °FLow clouds.9 mph75%30.42 "Hg8 mi
9:00 PM32 °FLow clouds.10 mph80%30.45 "Hg10 mi
8:00 PM32 °FMore clouds than sun.9 mph87%30.46 "Hg8 mi
7:00 PM34 °FPartly sunny.9 mph81%30.49 "Hg15 mi
6:00 PM36 °FPartly sunny.9 mph65%30.53 "Hg15 mi
5:00 PM36 °FScattered clouds.9 mph65%30.54 "Hg15 mi
4:00 PM36 °FScattered clouds.8 mph65%30.57 "Hg15 mi
3:00 PM37 °FPassing clouds.9 mph56%30.57 "Hg15 mi
2:00 PM37 °FPassing clouds.9 mph48%30.60 "Hg15 mi
1:00 PM36 °FScattered clouds.10 mph60%30.64 "Hg15 mi
12:00 PM36 °FPassing clouds.10 mph60%30.68 "Hg15 mi
11:00 AM34 °FPassing clouds.9 mph65%30.71 "Hg15 mi
10:00 AM32 °FScattered clouds.9 mph64%30.73 "Hg15 mi
9:00 AM30 °FScattered clouds.8 mph69%30.74 "Hg15 mi
8:00 AM30 °FPartly sunny.12 mph64%30.74 "Hg15 mi
7:00 AM28 °FPassing clouds.8 mph74%30.74 "Hg15 mi
6:00 AM27 °FPassing clouds.7 mph74%30.75 "Hg15 mi
5:00 AM27 °FPassing clouds.6 mph74%30.75 "Hg15 mi
4:00 AM27 °FPassing clouds.6 mph74%30.76 "Hg15 mi
3:00 AM27 °FPassing clouds.6 mph74%30.77 "Hg15 mi
Weather by CustomWeather, © 2014

See weather overview